{"data":{"norad_id":64457,"intl_designator":"2025-130V","name":"STARLINK-34445","alt_names":[],"object_type":"PAYLOAD","status":"ACTIVE","operator":null,"country":"US","launch_date":"2025-06-18","launch_site_code":"AFETR","launch_vehicle":null,"mission":null,"orbit_class":"UNKNOWN","rcs_meters":null,"size_class":null,"mass_kg":null,"dimensions":null,"purposes":["comms"],"wikipedia_slug":null,"has_3d_model":false,"image_url":null,"decayed_at":null,"tle_current":{"epoch":"2026-05-25T02:47:42.906048Z","epoch_age_seconds":61115,"freshness":"FRESH","line1":"1 64457U 25130V   26145.11646882  .00019017  00000+0  57264-3 0  9995","line2":"2 64457  53.1599  92.8795 0001254  86.9143 273.2003 15.34395171 52411","mean_motion":15.34395171,"eccentricity":0.0001254,"inclination_deg":53.1599,"raan_deg":92.8795,"arg_perigee_deg":86.9143,"mean_anomaly_deg":273.2003,"bstar":0.00057264,"rev_number":5241,"period_min":93.848053436034,"perigee_km":461.85974988444,"apogee_km":463.57543621638,"semimajor_km":6840.8545930504,"source":"CELESTRAK","updated_at":"2026-05-25T13:38:20.452540Z"}}}